QZS-2 (MICHIBIKI-2)

Last updated on Tue Oct 29 2024 00:02:41 GMT+0000 (Coordinated Universal Time)

1 42738U 17028A 24301.73140229 -.00000252 00000+0 00000+0 0 9998 2 42738 40.3668 251.8541 0742904 270.9223 275.0143 1.00248773 1634
UTC large
Height (km)
Speed (km/s)
/
Latitude / Longitude
Inclination (degrees)
Orbital Period (minutes)
Azimuth
Elevation
Range (km)
Doppler Factor

Next 0 passes for location: London (51.5072 / 0.1276)

Sorry there are no passes over London.